TimeCST,TemperatureF,Dew PointF,Humidity,Sea Level PressureIn,VisibilityMPH,Wind Direction,Wind SpeedMPH,Gust SpeedMPH,PrecipitationIn,Events,Conditions,WindDirDegrees,DateUTC
12:15 AM,53.6,51.8,94,29.63,7.0,SSE,16.1,21.9,N/A,,Scattered Clouds,160,2013-03-09 06:15:00
12:35 AM,53.6,51.8,94,29.63,7.0,SSE,15.0,-,N/A,,Mostly Cloudy,160,2013-03-09 06:35:00
12:55 AM,53.6,51.8,94,29.63,7.0,South,19.6,-,N/A,,Scattered Clouds,170,2013-03-09 06:55:00
1:15 AM,53.6,51.8,94,29.63,7.0,SSE,17.3,21.9,N/A,,Clear,160,2013-03-09 07:15:00
1:35 AM,51.8,51.8,100,29.63,7.0,SSE,16.1,-,N/A,,Clear,150,2013-03-09 07:35:00
1:55 AM,51.8,51.8,100,29.61,5.0,SSE,12.7,-,N/A,,Clear,150,2013-03-09 07:55:00
2:15 AM,51.8,50.0,94,29.61,10.0,SSE,18.4,25.3,N/A,,Clear,160,2013-03-09 08:15:00
2:35 AM,51.8,50.0,94,29.60,10.0,South,17.3,25.3,N/A,,Clear,170,2013-03-09 08:35:00
2:55 AM,51.8,51.8,100,29.60,10.0,SSE,24.2,29.9,N/A,,Scattered Clouds,160,2013-03-09 08:55:00
3:15 AM,51.8,51.8,100,29.58,10.0,SSE,18.4,27.6,N/A,,Overcast,160,2013-03-09 09:15:00
3:35 AM,51.8,51.8,100,29.57,10.0,South,20.7,29.9,N/A,,Overcast,170,2013-03-09 09:35:00
3:55 AM,51.8,51.8,100,29.57,7.0,South,19.6,26.5,N/A,,Overcast,170,2013-03-09 09:55:00
4:15 AM,51.8,51.8,100,29.58,7.0,South,19.6,25.3,N/A,,Mostly Cloudy,170,2013-03-09 10:15:00
4:35 AM,51.8,51.8,100,29.57,7.0,South,15.0,20.7,N/A,,Scattered Clouds,170,2013-03-09 10:35:00
4:55 AM,50.0,50.0,100,29.55,10.0,South,11.5,-,N/A,,Scattered Clouds,180,2013-03-09 10:55:00
5:15 AM,50.0,50.0,100,29.56,7.0,South,10.4,-,N/A,,Clear,170,2013-03-09 11:15:00
5:35 AM,50.0,50.0,100,29.56,7.0,SSW,6.9,-,N/A,,Scattered Clouds,210,2013-03-09 11:35:00
5:55 AM,46.4,46.4,100,29.56,2.5,SSW,4.6,-,N/A,,Scattered Clouds,200,2013-03-09 11:55:00
6:15 AM,44.6,44.6,100,29.57,3.0,SSW,5.8,-,N/A,,Clear,200,2013-03-09 12:15:00
6:35 AM,42.8,42.8,100,29.57,7.0,SSW,6.9,-,N/A,,Clear,210,2013-03-09 12:35:00
6:55 AM,41.0,41.0,100,29.56,10.0,SW,8.1,-,N/A,,Clear,230,2013-03-09 12:55:00
7:15 AM,37.4,37.4,100,29.56,7.0,WSW,9.2,-,N/A,,Clear,250,2013-03-09 13:15:00
7:35 AM,33.8,33.8,100,29.56,7.0,West,9.2,-,N/A,,Clear,270,2013-03-09 13:35:00
7:55 AM,35.6,35.6,100,29.58,0.2,West,8.1,-,N/A,Rain,Light Rain,270,2013-03-09 13:55:00
8:15 AM,37.4,37.4,100,29.58,0.2,West,8.1,-,N/A,Rain,Rain,270,2013-03-09 14:15:00
8:35 AM,41.0,41.0,100,29.57,0.5,West,8.1,-,N/A,Fog,Fog,280,2013-03-09 14:35:00
8:55 AM,42.8,42.8,100,29.58,4.0,West,11.5,-,N/A,,Overcast,280,2013-03-09 14:55:00
9:15 AM,42.8,42.8,100,29.58,5.0,WNW,11.5,-,N/A,,Overcast,290,2013-03-09 15:15:00
9:35 AM,44.6,44.6,100,29.57,3.0,WNW,10.4,-,N/A,,Overcast,290,2013-03-09 15:35:00
9:55 AM,42.8,42.8,100,29.57,2.5,WNW,12.7,-,N/A,,Overcast,300,2013-03-09 15:55:00
10:15 AM,44.6,44.6,100,29.57,5.0,NW,12.7,-,N/A,,Overcast,310,2013-03-09 16:15:00
10:35 AM,42.8,42.8,100,29.57,7.0,NW,10.4,-,N/A,,Overcast,310,2013-03-09 16:35:00
10:55 AM,42.8,42.8,100,29.57,7.0,NW,13.8,-,N/A,,Overcast,310,2013-03-09 16:55:00
11:15 AM,42.8,41.0,93,29.57,10.0,NW,15.0,-,N/A,,Overcast,310,2013-03-09 17:15:00
11:35 AM,42.8,41.0,93,29.57,10.0,NW,17.3,-,N/A,,Overcast,320,2013-03-09 17:35:00
11:55 AM,41.0,41.0,100,29.57,10.0,NW,18.4,23.0,N/A,,Overcast,310,2013-03-09 17:55:00
12:15 PM,41.0,41.0,100,29.57,5.0,NW,20.7,26.5,N/A,,Overcast,320,2013-03-09 18:15:00
12:35 PM,39.2,39.2,100,29.57,5.0,NNW,23.0,28.8,N/A,,Overcast,330,2013-03-09 18:35:00
12:55 PM,37.4,37.4,100,29.57,2.5,NNW,20.7,25.3,N/A,,Overcast,330,2013-03-09 18:55:00
1:15 PM,37.4,37.4,100,29.58,3.0,NNW,19.6,26.5,N/A,,Overcast,330,2013-03-09 19:15:00
1:35 PM,37.4,37.4,100,29.58,5.0,NNW,21.9,27.6,N/A,,Overcast,330,2013-03-09 19:35:00
1:55 PM,35.6,35.6,100,29.59,3.0,NNW,21.9,31.1,N/A,,Overcast,340,2013-03-09 19:55:00
2:15 PM,35.6,35.6,100,29.59,4.0,NNW,25.3,31.1,N/A,,Overcast,340,2013-03-09 20:15:00
2:35 PM,33.8,33.8,100,29.60,3.0,NNW,21.9,28.8,N/A,,Overcast,340,2013-03-09 20:35:00
2:55 PM,33.8,33.8,100,29.60,3.0,NNW,24.2,29.9,N/A,,Overcast,340,2013-03-09 20:55:00
3:15 PM,32.0,32.0,100,29.61,4.0,NNW,26.5,33.4,N/A,,Overcast,330,2013-03-09 21:15:00
3:35 PM,32.0,32.0,100,29.63,4.0,NNW,18.4,29.9,N/A,,Overcast,340,2013-03-09 21:35:00
3:55 PM,32.0,32.0,100,29.63,4.0,NNW,21.9,31.1,N/A,,Overcast,340,2013-03-09 21:55:00
4:15 PM,32.0,32.0,100,29.64,3.0,NNW,20.7,29.9,N/A,,Overcast,340,2013-03-09 22:15:00
4:35 PM,32.0,32.0,100,29.65,3.0,NNW,19.6,32.2,N/A,,Overcast,340,2013-03-09 22:35:00
4:55 PM,32.0,32.0,100,29.64,4.0,NNW,21.9,32.2,N/A,,Overcast,340,2013-03-09 22:55:00
5:15 PM,32.0,32.0,100,29.66,3.0,NNW,24.2,32.2,N/A,,Overcast,340,2013-03-09 23:15:00
5:35 PM,32.0,32.0,100,29.66,2.5,NNW,23.0,32.2,N/A,,Overcast,340,2013-03-09 23:35:00
5:55 PM,32.0,32.0,100,29.67,2.5,North,24.2,29.9,N/A,,Overcast,350,2013-03-09 23:55:00
6:15 PM,32.0,32.0,100,29.68,2.0,North,25.3,33.4,N/A,,Overcast,350,2013-03-10 00:15:00
6:35 PM,32.0,32.0,100,29.68,2.5,North,29.9,35.7,N/A,,Overcast,360,2013-03-10 00:35:00
6:55 PM,32.0,32.0,100,29.69,2.0,North,28.8,36.8,N/A,,Overcast,360,2013-03-10 00:55:00
7:15 PM,32.0,32.0,100,29.71,2.0,North,27.6,33.4,N/A,,Overcast,360,2013-03-10 01:15:00
7:35 PM,32.0,32.0,100,29.73,3.0,North,21.9,28.8,N/A,,Overcast,360,2013-03-10 01:35:00
7:55 PM,32.0,32.0,100,29.74,3.0,North,21.9,31.1,N/A,,Overcast,350,2013-03-10 01:55:00
8:15 PM,32.0,32.0,100,29.75,3.0,North,19.6,28.8,N/A,,Overcast,350,2013-03-10 02:15:00
8:35 PM,32.0,32.0,100,29.75,3.0,North,24.2,29.9,N/A,,Overcast,350,2013-03-10 02:35:00
8:55 PM,32.0,32.0,100,29.76,4.0,North,20.7,31.1,N/A,,Overcast,350,2013-03-10 02:55:00
9:15 PM,32.0,32.0,100,29.78,3.0,North,23.0,32.2,N/A,,Overcast,350,2013-03-10 03:15:00
9:35 PM,32.0,32.0,100,29.80,3.0,North,20.7,29.9,N/A,,Overcast,350,2013-03-10 03:35:00
9:55 PM,32.0,32.0,100,29.82,3.0,North,17.3,-,N/A,,Overcast,350,2013-03-10 03:55:00
10:15 PM,32.0,32.0,100,29.83,3.0,North,17.3,20.7,N/A,,Overcast,350,2013-03-10 04:15:00
10:35 PM,32.0,32.0,100,29.84,1.2,North,15.0,19.6,N/A,Snow,Light Snow,350,2013-03-10 04:35:00
10:55 PM,32.0,32.0,100,29.85,0.8,North,17.3,21.9,N/A,Snow,Snow,350,2013-03-10 04:55:00
11:15 PM,32.0,32.0,100,29.85,1.0,North,16.1,-,N/A,Snow,Light Snow,360,2013-03-10 05:15:00
11:35 PM,32.0,32.0,100,29.85,0.8,NNW,16.1,-,N/A,Snow,Snow,340,2013-03-10 05:35:00
11:55 PM,32.0,32.0,100,29.85,-9999.0,NNW,20.7,26.5,N/A,,Overcast,340,2013-03-10 05:55:00